Temp
8 9 9 9 9 10 12 13 13 13 14 14 14 14 14 14 14 14 14 14 14 15 17 17 17 17 17 15 15 15 15 15 14 15 15 17 14 15 15 15 14 16 15
7 8 8 9 9 9 9 9 10 12 13 14 14 14 14 14 14 14 14 13 12 12 14 15 15 15 15 16 17 13 14 16 16 14 18 15 14 14 13 13 12 14 13
7 7 8 8 8 8 9 9 9 9 9 9 11 12 12 12 12 12 12 12 12 12 14 14 15 15 16 17 16 13 13 13 13 12 14 13 14 13 13 12 12 13 12
7 7 7 7 7 7 8 8 9 9 10 9 9 10 10 10 10 11 12 12 12 13 13 13 14 14 16 16 15 14 14 15 14 13 12 13 13 13 12 12 12 12 11
6 6 6 6 6 7 7 7 8 8 9 9 10 10 10 10 10 10 11 11 11 11 12 13 13 13 15 14 13 14 15 13 12 12 12 12 12 12 12 12 12 11 11
5 5 5 5 6 6 6 6 7 7 7 8 8 9 9 9 10 10 10 10 11 11 12 12 11 12 12 13 13 13 13 13 13 12 12 12 12 12 12 12 12 11 9
2 2 2 4 5 5 5 5 5 6 6 7 7 8 8 9 9 9 9 9 10 10 11 11 12 12 12 12 11 12 12 13 13 12 12 12 12 12 12 11 11 11 10
2 1 0 1 2 4 4 4 5 5 5 5 6 6 7 8 8 8 8 8 8 9 10 10 11 12 12 12 12 12 11 11 12 11 11 11 12 11 11 11 10 10 9
1 0 -1 -1 -1 0 2 3 3 3 4 5 5 5 6 6 7 7 7 8 8 8 8 9 9 10 10 11 11 12 12 12 11 11 10 10 11 11 11 10 10 9 8
-1 -1 -1 -1 -1 -1 -1 -1 1 2 2 3 5 5 5 6 6 6 6 7 7 7 7 8 8 9 9 9 10 10 11 11 10 9 9 10 10 10 10 10 9 8 8
-2 -2 -2 -1 -2 -2 -2 -2 -2 -1 -2 -1 1 3 3 5 5 6 6 6 6 6 7 7 7 8 8 8 9 9 10 10 8 8 8 9 9 9 9 9 7 7 6
-3 -2 -2 -3 -2 -2 -1 -0 0 -1 -1 -1 0 1 0 0 2 4 5 5 5 5 6 7 7 7 7 7 8 8 8 8 7 7 7 8 8 8 7 6 5 5 3
-4 -4 -5 -4 -4 -4 -3 -3 -2 -1 -1 -1 -2 -2 1 1 1 1 2 4 5 4 5 6 6 6 6 7 7 7 7 6 5 5 6 6 6 6 5 4 3 3 2
-4 -4 -5 -5 -5 -5 -5 -4 -4 -5 -5 -5 -4 -4 -4 -4 -2 0 1 1 2 3 3 5 6 5 5 6 6 6 6 5 5 5 4 4 4 3 2 2 2 1 0
-4 -4 -5 -5 -5 -5 -5 -5 -5 -5 -5 -5 -5 -5 -5 -4 -5 -5 -4 -2 -1 -2 -1 1 2 4 5 6 6 6 5 4 3 4 3 2 1 1 0 -0 -1 -1 -0
-5 -5 -5 -6 -5 -6 -5 -5 -5 -6 -6 -6 -5 -5 -4 -5 -5 -5 -4 -3 -4 -4 -2 -1 -0 1 4 4 5 5 3 2 2 2 2 1 1 -0 -1 -2 -2 -1 -1
-6 -6 -6 -6 -5 -6 -6 -6 -6 -6 -6 -6 -6 -6 -6 -6 -6 -6 -6 -5 -5 -5 -4 -2 -1 -0 3 4 4 4 2 1 1 0 0 -0 -1 -1 -2 -3 -3 -3 -4
-6 -6 -6 -6 -6 -6 -6 -6 -6 -6 -6 -6 -5 -5 -5 -5 -5 -6 -6 -5 -4 -4 -4 -3 -2 0 2 3 3 2 1 1 1 -0 -2 -2 -2 -2 -3 -4 -5 -5 -6
-6 -6 -6 -6 -6 -6 -6 -6 -6 -6 -6 -6 -5 -5 -5 -5 -5 -5 -5 -5 -4 -4 -4 -3 -1 0 1 1 2 1 0 0 0 -1 -2 -3 -3 -4 -4 -5 -6 -6 -6
-6 -6 -6 -6 -6 -6 -6 -6 -6 -6 -6 -6 -5 -5 -5 -5 -5 -5 -5 -5 -4 -4 -3 -3 -1 -0 0 0 -0 -0 -0 -0 -0 -2 -3 -3 -4 -4 -5 -5 -6 -6 -7
-6 -6 -6 -6 -6 -6 -6 -7 -6 -6 -6 -6 -6 -6 -6 -5 -5 -5 -5 -5 -5 -4 -3 -2 -1 -1 -0 -0 -0 -0 -1 -0 -0 -2 -3 -4 -4 -5 -5 -5 -6 -7 -6
-7 -6 -6 -6 -7 -6 -6 -7 -6 -6 -6 -6 -6 -6 -6 -5 -5 -4 -4 -4 -4 -3 -3 -2 -1 -1 -1 -0 -0 -0 -1 -0 -1 -2 -4 -4 -5 -5 -5 -6 -6 -6 -6
-7 -6 -6 -6 -7 -7 -7 -7 -6 -6 -6 -6 -6 -6 -6 -5 -5 -4 -3 -4 -4 -3 -3 -3 -1 -1 -1 -1 -0 -1 -1 -0 -1 -3 -4 -5 -5 -5 -5 -5 -6 -6 -6
-7 -7 -7 -7 -7 -7 -7 -7 -7 -7 -7 -6 -6 -6 -5 -5 -5 -4 -3 -3 -3 -3 -3 -3 -2 -1 -1 -1 -1 -1 -1 -2 -3 -4 -4 -5 -5 -5 -5 -5 -6 -6 -7
-7 -7 -7 -7 -7 -7 -7 -7 -7 -7 -7 -6 -6 -6 -6 -5 -5 -4 -4 -3 -3 -3 -3 -2 -2 -1 -1 -1 -2 -2 -2 -3 -4 -4 -5 -5 -5 -5 -5 -6 -6 -7 -8
-7 -7 -7 -7 -7 -7 -7 -7 -7 -7 -7 -6 -6 -6 -6 -5 -5 -5 -4 -4 -4 -4 -3 -3 -3 -2 -2 -2 -3 -3 -3 -4 -4 -5 -5 -5 -5 -5 -5 -5 -6 -7 -7
Height
1463 1461 1459 1456 1455 1456 1454 1455 1458 1460 1461 1463 1465 1466 1468 1470 1471 1473 1477 1480 1483 1484 1484 1485 1486 1488 1486 1495 1496 1503 1501 1500 1496 1496 1495 1495 1495 1494 1495 1495 1492 1488 1485
1469 1465 1463 1460 1460 1459 1457 1455 1454 1454 1454 1455 1456 1459 1460 1463 1464 1466 1468 1471 1475 1477 1477 1479 1480 1480 1479 1483 1485 1493 1489 1487 1484 1482 1486 1483 1484 1486 1484 1485 1483 1479 1478
1472 1470 1467 1467 1462 1464 1461 1461 1459 1456 1455 1454 1453 1453 1455 1457 1459 1461 1464 1467 1469 1469 1470 1470 1471 1472 1470 1470 1471 1477 1478 1477 1476 1475 1474 1475 1474 1477 1477 1477 1474 1472 1471
1475 1473 1472 1469 1466 1464 1464 1464 1457 1459 1458 1453 1457 1453 1454 1453 1455 1455 1457 1458 1460 1460 1460 1461 1462 1463 1462 1463 1462 1466 1468 1468 1470 1468 1469 1468 1467 1466 1467 1468 1466 1465 1464
1476 1475 1474 1470 1468 1466 1464 1462 1462 1461 1456 1459 1457 1453 1452 1454 1457 1454 1454 1453 1453 1452 1453 1452 1453 1453 1453 1455 1457 1458 1459 1458 1460 1460 1461 1460 1459 1458 1458 1458 1457 1457 1456
1477 1474 1472 1469 1467 1465 1464 1461 1459 1458 1458 1456 1454 1453 1452 1452 1451 1453 1452 1451 1450 1449 1448 1446 1444 1444 1446 1447 1448 1449 1450 1449 1449 1451 1451 1450 1451 1451 1450 1450 1449 1449 1449
1476 1473 1470 1467 1465 1463 1460 1457 1454 1454 1453 1450 1449 1449 1447 1448 1447 1447 1447 1447 1444 1443 1442 1442 1440 1439 1438 1438 1439 1440 1440 1441 1442 1444 1442 1441 1441 1443 1444 1442 1442 1442 1443
1475 1471 1466 1462 1459 1459 1456 1453 1452 1449 1447 1444 1444 1444 1443 1443 1442 1442 1443 1441 1439 1438 1436 1437 1435 1433 1433 1432 1433 1432 1433 1433 1433 1434 1433 1433 1433 1434 1434 1434 1435 1435 1436
1472 1469 1466 1462 1459 1454 1451 1449 1448 1444 1442 1439 1438 1436 1435 1435 1436 1436 1435 1435 1433 1431 1430 1430 1431 1427 1427 1427 1425 1424 1424 1424 1424 1424 1424 1424 1425 1424 1425 1426 1425 1427 1426
1469 1464 1461 1461 1456 1452 1450 1447 1441 1439 1434 1434 1432 1431 1431 1428 1428 1427 1428 1427 1426 1425 1425 1423 1422 1421 1420 1419 1418 1417 1414 1416 1416 1415 1417 1418 1416 1416 1415 1416 1419 1418 1419
1468 1463 1459 1458 1453 1450 1447 1443 1438 1435 1432 1430 1424 1424 1422 1419 1421 1420 1420 1420 1419 1418 1416 1417 1415 1414 1415 1413 1410 1408 1407 1407 1406 1406 1409 1411 1410 1407 1407 1409 1411 1411 1413
1462 1458 1455 1452 1447 1444 1441 1437 1432 1428 1425 1420 1418 1415 1413 1412 1413 1410 1411 1411 1411 1406 1406 1408 1408 1408 1407 1406 1404 1403 1400 1400 1398 1400 1400 1401 1402 1403 1401 1402 1404 1407 1408
1457 1453 1447 1444 1443 1440 1436 1431 1426 1421 1416 1411 1409 1405 1404 1405 1402 1400 1398 1397 1398 1398 1398 1397 1397 1399 1400 1399 1397 1394 1394 1392 1393 1394 1394 1394 1394 1398 1397 1397 1399 1402 1405
1453 1448 1445 1442 1438 1433 1428 1423 1418 1416 1413 1409 1404 1400 1396 1394 1391 1389 1387 1386 1385 1388 1388 1386 1385 1390 1392 1390 1389 1389 1387 1386 1388 1388 1389 1389 1390 1391 1394 1394 1396 1399 1404
1449 1445 1440 1435 1430 1425 1421 1419 1414 1409 1406 1401 1398 1393 1388 1381 1381 1381 1379 1377 1377 1378 1377 1376 1376 1378 1382 1383 1383 1384 1383 1381 1381 1382 1383 1385 1388 1388 1390 1391 1395 1398 1402
1443 1438 1433 1428 1423 1419 1413 1408 1405 1401 1397 1393 1388 1383 1377 1373 1371 1370 1369 1367 1366 1367 1367 1366 1368 1371 1372 1375 1377 1378 1377 1376 1376 1378 1379 1380 1381 1385 1390 1391 1392 1396 1401
1439 1434 1428 1423 1417 1412 1406 1401 1395 1390 1388 1384 1381 1376 1370 1366 1363 1361 1358 1357 1355 1357 1355 1357 1359 1361 1365 1369 1370 1372 1372 1372 1374 1374 1373 1378 1378 1384 1385 1392 1391 1394 1400
1434 1428 1422 1416 1411 1405 1400 1395 1389 1382 1374 1370 1368 1363 1357 1353 1350 1349 1347 1345 1343 1343 1345 1349 1351 1354 1358 1361 1364 1367 1365 1369 1369 1369 1371 1376 1378 1380 1384 1390 1391 1392 1400
1429 1423 1418 1412 1407 1401 1395 1389 1383 1377 1370 1363 1356 1350 1348 1345 1343 1341 1340 1337 1336 1336 1338 1341 1343 1346 1350 1355 1357 1361 1363 1364 1364 1365 1368 1372 1377 1381 1384 1388 1397 1398 1401
1424 1419 1413 1407 1401 1396 1390 1384 1378 1372 1365 1359 1354 1349 1343 1340 1335 1333 1331 1329 1328 1328 1330 1331 1335 1338 1343 1349 1354 1355 1357 1358 1359 1361 1364 1369 1374 1379 1385 1390 1393 1401 1406
1419 1412 1407 1402 1397 1391 1385 1379 1373 1367 1360 1354 1348 1343 1339 1334 1328 1324 1322 1320 1320 1320 1321 1323 1327 1330 1336 1342 1345 1348 1350 1352 1355 1358 1362 1365 1370 1377 1384 1389 1394 1399 1403
1414 1408 1402 1397 1391 1385 1379 1373 1367 1362 1355 1349 1342 1336 1331 1326 1320 1316 1313 1311 1311 1313 1314 1316 1319 1324 1329 1334 1338 1342 1344 1346 1349 1352 1356 1363 1369 1375 1382 1387 1391 1398 1403
1410 1404 1398 1392 1386 1380 1374 1368 1362 1356 1350 1344 1338 1331 1325 1319 1314 1309 1306 1304 1304 1306 1308 1310 1314 1318 1323 1328 1333 1337 1339 1343 1346 1350 1355 1362 1368 1375 1380 1385 1391 1399 1406
1406 1400 1394 1388 1382 1376 1371 1364 1358 1353 1346 1339 1333 1326 1320 1315 1309 1305 1301 1299 1299 1301 1303 1306 1309 1314 1319 1325 1330 1334 1337 1341 1345 1350 1355 1360 1367 1375 1381 1387 1394 1402 1409
1403 1396 1391 1385 1379 1373 1367 1361 1356 1350 1344 1338 1332 1326 1320 1315 1309 1304 1300 1298 1297 1298 1300 1303 1307 1312 1318 1323 1327 1331 1335 1340 1345 1350 1356 1362 1369 1377 1383 1390 1397 1404 1410
1399 1393 1388 1382 1376 1371 1365 1359 1353 1348 1342 1336 1331 1325 1320 1315 1310 1306 1302 1299 1298 1298 1300 1303 1307 1311 1316 1321 1326 1330 1335 1341 1346 1352 1358 1365 1373 1380 1385 1391 1399 1406 1412
Wind_Speed
33 31 29 24 21 13 6 15 24 26 25 24 24 23 24 24 26 28 27 28 28 26 25 29 30 30 29 31 40 47 45 35 39 42 38 37 41 45 44 46 40 37 31
28 27 26 26 24 24 23 18 9 5 12 21 28 30 31 30 26 30 29 30 27 27 29 32 32 31 29 28 30 50 48 38 39 49 43 43 41 44 39 42 35 30 29
24 20 20 20 22 20 19 16 16 16 12 10 3 7 13 16 21 25 26 32 33 34 37 38 35 31 29 30 33 40 38 35 36 42 44 39 37 39 41 38 33 28 29
25 24 21 18 17 16 15 14 15 13 11 11 8 7 9 8 9 11 19 26 30 31 33 34 31 33 34 34 31 37 40 38 37 38 41 38 39 36 38 36 31 31 28
24 23 23 21 18 16 14 13 11 11 11 9 8 7 6 6 7 9 10 13 18 23 26 31 34 34 34 37 37 39 39 36 36 35 37 39 38 37 35 31 29 29 28
23 23 21 24 23 20 19 16 15 14 13 14 14 13 11 10 9 10 11 12 12 12 15 19 25 31 32 34 34 36 35 33 33 35 37 39 40 33 31 31 32 29 28
20 20 22 21 21 22 23 23 23 22 21 20 18 18 18 18 17 15 15 16 16 16 16 17 18 19 22 27 33 37 40 39 39 38 38 41 38 36 31 33 32 33 30
18 17 19 21 22 22 22 24 24 26 27 26 26 24 24 23 21 21 21 21 21 20 19 20 22 21 21 23 25 29 33 37 38 38 39 37 35 32 31 28 28 31 30
15 15 16 19 20 21 24 23 23 26 26 27 29 30 30 29 25 23 24 24 26 23 22 23 23 23 23 23 27 28 30 30 29 32 35 36 34 32 32 31 33 32 31
18 20 19 18 17 19 22 24 24 24 25 26 29 29 32 32 28 26 26 28 32 28 26 25 25 23 25 26 27 28 30 26 26 26 28 32 33 33 32 31 30 31 31
16 18 18 19 19 19 20 20 23 22 22 25 28 30 31 30 32 30 29 30 31 31 31 28 26 25 25 25 27 29 30 28 25 25 29 29 30 29 29 30 29 29 28
21 19 19 20 21 21 24 26 25 26 28 29 29 29 26 26 28 31 32 34 31 31 34 32 28 26 26 25 25 27 27 30 28 27 27 28 28 28 27 27 27 25 23
21 21 23 26 25 24 24 24 27 28 30 30 29 31 32 31 31 30 29 32 34 34 33 34 32 30 27 25 24 25 27 27 27 27 26 26 26 27 27 26 24 23 23
23 24 23 23 25 25 25 27 27 25 26 28 30 31 31 31 31 30 29 28 29 33 30 31 34 33 29 27 26 24 25 24 25 26 26 26 27 26 26 25 25 25 24
24 23 24 26 27 28 28 30 31 29 27 30 30 30 31 34 31 30 30 29 30 30 28 28 30 32 31 28 25 24 24 22 22 25 25 25 26 26 27 27 26 27 26
26 27 28 30 30 29 31 34 32 30 29 30 32 31 32 33 32 32 30 28 27 27 31 33 32 32 31 26 23 22 21 20 21 23 24 25 28 29 29 29 28 27 28
26 27 30 31 30 32 32 33 36 35 32 31 31 30 29 30 31 30 30 29 27 24 32 35 34 31 30 26 22 21 19 18 20 22 22 25 30 32 31 30 29 29 29
26 29 30 32 31 32 32 33 34 37 38 38 33 32 32 31 27 27 25 24 29 30 32 34 33 29 31 28 23 20 16 17 18 18 20 24 29 32 32 30 30 31 31
27 29 29 28 30 30 30 32 33 35 36 37 37 34 31 29 29 26 23 24 29 32 33 30 29 29 31 28 21 17 16 15 16 17 18 22 27 31 32 31 28 28 29
28 29 28 28 30 28 29 32 32 32 34 35 34 34 33 30 31 28 23 23 27 29 31 28 28 31 31 26 22 17 14 15 15 15 19 23 27 30 30 29 29 28 25
28 29 28 28 27 28 30 29 30 31 31 31 33 33 31 31 31 28 28 27 26 24 24 27 28 29 29 26 22 18 16 14 15 16 20 23 28 32 32 31 33 33 31
26 28 28 28 28 30 30 30 28 29 29 30 30 31 28 26 27 26 25 25 23 22 19 22 25 25 23 24 21 17 15 14 16 18 23 27 31 34 35 35 35 31 28
25 27 28 28 28 29 29 27 27 27 27 27 26 27 25 24 23 22 21 18 18 20 18 20 20 18 18 22 18 16 14 15 18 22 26 31 35 36 37 36 33 30 30
26 26 26 27 28 28 28 26 26 26 25 24 24 24 23 23 20 17 15 13 14 14 14 17 18 16 18 19 20 16 15 17 18 22 25 31 34 38 36 33 30 30 34
27 25 25 26 27 27 25 25 24 23 23 22 22 21 20 19 17 13 9 3 4 7 10 13 16 17 16 17 18 18 17 16 19 22 25 29 34 35 34 32 31 33 33
26 25 24 25 26 25 24 24 23 22 22 21 20 18 17 16 14 11 8 4 1 5 8 11 13 15 16 16 17 17 16 17 19 22 26 32 35 35 32 31 31 33 33
Wind_Direction
53 59 60 62 63 68 217 236 245 249 248 242 246 248 244 243 239 235 233 229 221 232 238 238 241 250 256 272 283 280 273 271 271 277 283 277 284 277 280 278 272 275 277
42 47 51 56 54 49 52 50 55 163 213 227 232 240 229 228 225 214 210 220 233 238 244 241 243 250 254 255 257 265 262 271 281 266 278 274 273 277 277 276 274 272 277
25 28 35 37 40 37 45 41 43 37 30 26 22 211 235 246 246 236 247 252 255 254 250 251 253 245 247 245 252 256 253 257 264 270 281 271 275 266 270 272 271 277 281
4 5 2 4 6 11 13 13 28 24 24 32 24 25 360 322 292 257 246 244 249 250 241 254 249 245 247 242 246 247 250 259 268 269 271 272 266 266 268 268 267 271 275
347 346 342 343 343 337 339 339 340 340 351 341 349 3 355 339 312 314 298 284 266 252 245 240 248 251 248 247 252 255 257 258 259 262 264 264 263 264 265 267 269 264 266
339 331 327 323 323 325 320 318 321 314 310 312 312 308 302 299 301 298 297 291 288 282 275 269 262 253 248 246 243 248 254 252 257 261 263 263 267 267 267 265 258 254 252
330 327 323 318 311 310 312 313 310 306 304 298 296 297 296 294 294 291 289 289 287 286 285 283 278 277 273 269 264 259 257 255 258 263 262 266 268 268 271 267 259 257 258
322 323 319 319 315 308 301 300 299 299 298 298 293 287 282 282 285 285 283 283 282 283 281 279 278 274 273 271 270 267 263 260 259 259 262 266 268 271 266 264 264 256 250
326 325 322 320 316 313 312 303 297 292 287 285 284 285 284 279 274 274 273 274 276 277 280 280 278 278 275 272 270 268 267 266 267 264 261 261 264 263 259 259 254 245 235
324 324 324 319 318 316 311 307 308 304 299 294 285 278 273 274 275 272 272 271 272 270 269 274 278 280 281 278 276 275 269 270 264 265 264 260 255 255 251 253 251 244 238
325 323 322 319 318 314 310 310 302 299 295 290 291 287 285 280 273 263 262 263 267 269 267 266 272 279 282 283 279 278 280 273 262 262 262 260 260 254 249 247 242 242 241
323 321 317 315 312 309 308 308 309 306 298 297 294 288 286 283 274 270 257 259 264 265 261 262 263 266 277 283 285 282 275 266 261 258 258 257 256 254 241 235 234 237 231
324 321 319 319 315 311 310 311 311 309 309 307 302 298 293 287 283 277 269 260 257 263 265 259 260 259 265 275 279 281 279 268 260 256 257 255 252 250 238 230 225 219 210
321 320 318 312 311 314 315 317 315 309 303 300 299 296 293 293 292 288 283 273 266 260 264 261 255 253 257 267 277 282 275 267 260 259 257 255 245 232 226 222 213 202 198
320 319 317 316 318 316 315 314 313 309 302 297 295 293 292 292 290 288 286 280 270 260 262 261 259 246 248 256 271 283 268 258 256 256 252 246 234 220 210 204 201 196 195
320 319 318 317 318 316 316 315 315 312 309 306 304 300 297 293 294 290 281 278 272 275 261 257 259 251 242 248 263 272 269 251 249 250 247 237 225 213 205 193 191 187 182
314 314 314 318 319 318 317 316 314 314 309 307 302 298 296 297 297 292 287 272 266 266 258 250 255 253 242 246 254 262 259 252 252 244 239 231 219 210 201 194 182 177 171
313 316 318 316 317 318 315 315 317 314 312 312 311 309 309 308 306 301 292 279 265 257 254 255 250 251 236 238 243 248 248 249 247 243 235 228 217 206 194 188 179 170 162
317 318 319 315 318 315 316 318 315 315 312 312 314 314 315 309 306 299 290 267 259 257 258 254 244 243 234 235 236 236 239 244 249 240 231 225 215 201 188 181 175 164 156
319 319 323 323 320 315 317 318 317 315 313 311 310 309 309 312 302 299 290 273 257 256 256 252 238 238 234 230 229 226 227 232 238 232 224 216 207 198 187 178 170 157 145
321 324 328 326 315 321 318 316 316 313 312 311 308 308 311 306 299 293 289 278 262 253 250 244 234 236 233 227 221 219 219 223 228 222 219 210 202 193 186 178 168 163 161
325 326 329 324 326 324 318 319 320 318 315 314 313 314 315 309 306 298 293 279 259 248 246 239 233 234 232 222 214 213 213 217 219 212 208 204 198 193 183 174 171 169 166
327 329 329 328 329 326 326 326 323 321 321 319 319 319 319 320 313 302 292 279 261 246 250 231 224 221 219 209 213 215 215 219 216 206 198 195 191 185 178 171 170 167 168
329 328 329 330 329 329 329 327 327 326 327 328 330 332 331 330 325 316 297 270 250 241 243 225 209 199 200 202 207 207 205 207 200 199 199 193 186 181 173 167 168 172 168
330 328 330 333 333 331 330 329 329 331 333 335 337 336 337 338 339 337 329 288 226 217 216 204 196 195 200 206 203 200 195 189 188 190 191 188 178 173 167 167 168 166 164
333 329 331 336 335 334 330 330 331 334 337 339 340 342 344 347 350 357 6 21 99 167 178 177 180 184 185 187 187 181 175 176 177 180 180 173 170 169 168 170 169 167 165